Location: Balsareny
(41.8670°N, 1.8830°E)
Time: 18:44:51
(UTC+01:00)

X-37B - Pass Details

Date: 07 December 2021
Orbit: 334 x 337 km, 45.0° (Epoch: 11 January)

Event Time Altitude Azimuth Distance (km) Brightness Sun altitude
Rises 18:11:44 0° 219° (SW) 2,091 5.5 -9.2°
Reaches altitude 10° 18:13:56 10° 204° (SSW) 1,258 3.9 -9.6°
Maximum altitude 18:16:17 24° 148° (SSE) 749 1.9 -10.0°
Enters shadow 18:18:04 14° 99° (E) 1,077 2.3 -10.3°
